Reflectivity
-8 -3 -20 -13 -14 7 19 0 8 25 7 24 15 17 14 -3 9 -10 -16 20 -20 -20 -19 -5 1 -6 -20 -20 -20 -20 -20 -20
-1 -5 -20 -20 -13 8 -4 18 22 -6 8 19 29 22 -15 -20 -20 16 8 14 -6 13 6 1 2 -20 -20 -20 -20 -20 -20 -20
-12 -16 -20 -20 -20 -19 -16 9 29 14 12 19 32 31 24 -18 14 1 3 24 3 12 13 9 -3 -20 -20 -20 -20 -20 -20 -20
-20 -2 -20 -20 -20 -18 -15 -14 20 17 -1 -15 23 16 19 18 17 8 -8 14 20 22 19 -20 -20 -20 -20 -20 -20 -20 -20 -20
-20 -9 -0 -20 -20 7 -20 13 15 -5 14 3 19 13 8 -17 -19 5 19 15 7 -1 -10 -1 -20 -20 -20 -20 -20 -8 -17 -20
-20 -20 -20 -20 -20 -17 -20 -20 -8 -5 -20 -20 -16 -20 -20 -14 9 15 16 -4 -20 -20 -20 -20 -20 -20 -20 -16 -12 -20 16 -19
-20 -20 -20 -20 -20 -20 -20 -20 -20 -20 -20 -20 -20 -20 -20 -20 -20 -20 -20 -20 -20 -20 -20 -20 -20 -20 -20 -20 20 15 15 12
-20 -20 -20 -20 -16 -7 -0 -20 -20 -20 -20 -20 -20 -20 -20 -20 -20 -20 -20 -20 -20 -20 -20 -20 -20 -20 -20 -20 -20 22 18 17
-20 -20 -20 -20 -20 8 3 -20 -20 -20 -20 -20 -20 -20 -20 -20 -20 -20 -20 -20 -20 -20 -20 -20 -20 -20 -20 -20 -20 17 19 25
-20 -20 -20 -20 -20 -20 -20 -20 -20 -20 -20 -20 -20 -20 -20 -20 -20 -20 -20 -20 -20 -20 -20 -20 -20 -20 -20 -20 -20 8 -16 24
-20 -20 -20 -20 -20 -20 -20 -16 -20 -20 -20 -20 -20 -20 -20 -20 -20 -20 -20 -20 -20 -20 -20 -20 -20 -7 8 13 11 4 22 26
-20 -20 -20 -20 -20 -20 -20 -0 -20 -20 -20 -20 -20 -20 -20 -20 -20 -20 -20 -20 -20 -20 -20 -20 -20 5 3 15 23 29 37 33
-20 -20 -20 -20 -20 -20 -20 -20 -20 -20 -20 -17 17 -19 -20 -20 -20 -20 -20 -20 -20 -20 15 19 23 29 32 24 19 42 40 31
-20 -20 -20 -20 -20 -20 -20 -20 -20 -20 -18 -17 9 29 13 -20 -20 -20 -20 -20 -20 17 16 28 27 21 18 27 36 37 22 21
-20 -20 -20 -20 -20 -20 -20 -20 -20 -20 -20 -20 -20 -18 -20 -20 -9 -20 -20 -20 -3 -6 26 38 12 -20 -15 -20 -19 -4 24 26
-20 -20 -20 -20 -20 -20 -20 -20 -20 -20 -20 -20 -20 -20 -20 -20 -20 -20 -5 23 0 21 13 7 24 -20 -20 -20 -20 -19 20 16
-20 -20 -20 -20 -20 -20 -20 -20 -20 -20 -20 -20 -20 -20 -20 -20 -20 12 -11 20 16 -20 23 26 18 2 10 13 -9 -17 2 -11
-20 -20 -20 -20 -20 -20 -20 -20 -20 -20 -20 -20 -20 -20 2 -4 -10 -10 -20 -20 14 16 1 6 12 14 7 15 18 5 30 25
-20 -20 -20 -20 -20 -20 -20 -20 -20 -20 -20 -20 -20 -7 -0 1 -15 8 18 20 7 6 18 13 17 18 21 23 25 20 36 40
Wind_Speed
5 4 6 7 6 7 6 5 9 11 9 8 5 5 4 6 6 6 9 5 8 6 5 5 8 5 4 4 5 3 3 4
7 7 6 9 8 9 7 7 10 10 9 10 5 5 5 3 7 10 11 8 8 7 5 5 5 7 7 6 4 5 2 3
8 8 7 8 9 9 9 8 8 10 8 6 3 3 3 3 3 5 5 5 8 9 8 7 7 5 6 6 5 3 2 5
10 9 8 7 8 10 10 10 9 8 9 7 5 5 3 2 3 4 2 5 6 7 8 8 7 6 7 7 6 7 5 4
9 12 10 10 8 8 10 10 9 8 10 8 9 9 10 7 4 4 4 6 7 6 7 7 7 6 6 7 6 5 5 6
13 12 12 11 10 9 9 10 10 10 11 11 9 8 6 3 3 5 6 7 6 6 7 7 7 7 8 9 7 7 4 4
12 11 11 12 11 10 9 10 10 9 9 9 10 11 7 6 5 5 4 3 4 7 8 8 9 8 7 9 10 11 10 4
13 15 14 14 14 15 12 13 14 12 12 11 11 10 10 11 10 8 6 5 5 6 7 7 5 7 8 8 10 11 10 8
15 16 15 16 18 17 16 16 13 13 12 12 9 10 7 7 8 7 7 8 7 6 6 7 10 9 9 9 7 9 10 9
16 15 15 16 15 17 18 16 15 13 13 11 10 9 9 8 7 5 7 6 5 7 9 11 11 12 12 11 10 11 9 9
11 14 17 16 14 15 15 16 16 14 14 12 10 11 10 10 7 9 10 8 7 7 8 10 9 9 10 11 7 6 9 7
13 14 12 12 12 14 15 15 15 13 13 13 14 12 12 11 11 12 11 8 9 10 10 9 9 9 9 10 9 9 10 10
9 6 8 11 13 14 16 15 16 16 15 15 14 12 12 14 14 14 11 13 11 13 10 10 9 10 10 11 11 10 15 15
8 9 11 11 12 13 14 15 18 15 14 14 13 15 13 15 14 13 13 13 14 11 12 13 14 14 13 14 14 14 16 16
6 7 11 11 12 13 13 14 14 14 15 15 14 15 16 14 14 14 13 12 13 12 12 14 13 12 11 11 11 11 11 11
9 9 10 11 12 12 13 14 14 13 14 15 20 13 10 8 11 10 10 12 13 14 13 11 9 10 8 11 12 12 12 10
10 11 9 11 15 15 13 13 13 12 14 16 12 9 8 9 10 11 11 12 10 11 10 10 10 9 13 15 12 11 12 12
10 12 10 6 6 5 6 5 6 8 10 7 6 7 8 8 6 7 9 10 8 8 7 7 8 7 6 8 7 6 6 7
8 6 6 6 5 7 8 7 7 6 6 6 6 6 5 5 6 6 3 2 2 2 3 5 6 5 14 14 13 8 9 8
Wind_Direction
180 160 133 122 108 107 97 126 129 120 116 127 95 92 138 141 137 144 138 120 129 134 126 180 134 135 138 137 140 95 149 151
171 164 143 133 130 128 124 134 143 141 137 141 138 144 131 132 158 154 127 152 157 153 158 153 139 167 177 162 116 147 126 143
176 168 157 157 146 149 147 134 148 143 137 122 93 111 91 108 78 91 131 134 177 182 157 177 167 165 169 170 154 141 128 176
180 177 173 161 163 161 159 154 150 146 134 112 115 92 74 168 91 75 167 182 201 168 177 173 175 170 185 186 182 165 156 203
177 186 178 175 175 173 167 163 161 151 151 142 165 172 168 180 157 152 200 185 206 169 176 178 175 184 178 190 194 189 156 172
179 192 188 173 176 179 176 170 175 172 171 179 170 170 183 154 159 177 202 194 189 193 191 182 180 193 199 192 193 205 209 166
176 180 193 193 182 169 180 180 191 186 185 176 178 175 171 182 196 202 210 222 202 193 195 193 197 197 195 197 204 207 209 207
175 177 182 191 194 195 183 186 196 195 198 193 189 184 188 194 201 211 195 212 226 220 187 194 197 205 206 199 200 209 203 205
177 182 187 187 192 197 195 194 198 194 200 201 199 198 200 204 204 218 221 222 219 202 207 211 217 212 213 206 209 211 208 209
184 178 186 190 194 195 194 192 197 192 201 201 205 201 207 208 210 209 226 224 218 203 203 209 213 212 208 197 205 206 194 198
192 186 190 192 191 191 192 199 196 190 191 197 205 209 208 214 206 218 224 230 217 215 214 217 213 205 201 197 201 194 198 205
201 205 196 183 184 186 193 193 199 198 195 193 203 207 208 210 220 226 225 226 225 231 234 227 219 204 191 188 191 179 208 210
196 187 176 186 187 189 192 190 199 201 199 205 206 205 204 209 217 224 222 230 231 232 229 227 220 206 192 197 201 202 207 211
173 179 194 195 197 195 195 195 202 199 201 205 204 210 207 218 222 225 226 225 228 224 228 230 231 223 209 205 217 214 213 212
188 181 198 200 202 205 205 210 207 198 200 208 213 214 213 216 222 223 220 213 219 215 212 226 230 218 216 211 211 212 215 212
200 196 202 196 200 206 208 212 207 200 207 212 223 220 220 215 221 220 210 220 222 226 230 226 214 218 219 206 199 198 200 191
211 206 193 195 200 206 205 208 204 190 204 218 222 216 211 203 205 210 211 223 218 216 211 208 202 216 218 210 198 196 188 168
212 211 205 188 201 192 185 159 146 173 194 190 166 176 199 203 191 184 201 206 197 206 204 204 222 235 208 187 175 157 144 96
218 142 109 95 100 97 105 110 96 114 110 118 122 132 149 162 171 189 168 132 163 111 110 95 89 80 105 103 94 88 86 90